| time (UTC) | temp F | wind direction | speed knots | gust knots | rain 1hr in | rain 24hr in | rain mn in | humidity % | barometer mb |
| 20260507205025 | 56 | 302 | 2.6 | 4.3 | 0.00 | 0.02 | 0.02 | 74 | 1010.5 |
| 20260507204521 | 56 | 309 | 7.8 | 11.3 | 0.00 | 0.02 | 0.02 | 77 | 1010.1 |
| 20260507204019 | 57 | 353 | 0.0 | 4.3 | 0.00 | 0.02 | 0.02 | 80 | 1010.5 |
| 20260507203517 | 56 | 353 | 0.9 | 5.2 | 0.00 | 0.02 | 0.02 | 81 | 1010.4 |
| 20260507203014 | 56 | 297 | 3.5 | 4.3 | 0.00 | 0.02 | 0.02 | 79 | 1010.7 |
| 20260507202509 | 56 | 276 | 0.0 | 3.5 | 0.00 | 0.02 | 0.02 | 80 | 1010.4 |
| 20260507202006 | 56 | 348 | 1.7 | 6.1 | 0.00 | 0.02 | 0.02 | 79 | 1010.2 |
| 20260507201502 | 57 | 30 | 1.7 | 2.6 | 0.00 | 0.02 | 0.02 | 82 | 1010.6 |
| 20260507200958 | 56 | 257 | 0.0 | 2.6 | 0.00 | 0.02 | 0.02 | 81 | 1010.7 |
| 20260507200454 | 56 | 259 | 0.0 | 3.5 | 0.00 | 0.02 | 0.02 | 77 | 1010.7 |
| 20260507195949 | 56 | 66 | 0.9 | 1.7 | 0.00 | 0.02 | 0.02 | 78 | 1011.0 |
| 20260507195448 | 56 | 237 | 2.6 | 4.3 | 0.00 | 0.02 | 0.02 | 79 | 1011.0 |
| 20260507194945 | 57 | 10 | 2.6 | 2.6 | 0.00 | 0.02 | 0.02 | 78 | 1010.8 |
| 20260507194441 | 57 | 114 | 0.0 | 1.7 | 0.00 | 0.02 | 0.02 | 76 | 1010.7 |
| 20260507193937 | 57 | 331 | 1.7 | 1.7 | 0.00 | 0.02 | 0.02 | 78 | 1010.7 |
| 20260507193434 | 56 | 90 | 0.0 | 2.6 | 0.00 | 0.02 | 0.02 | 76 | 1010.6 |
| 20260507192931 | 56 | 300 | 2.6 | 2.6 | 0.00 | 0.02 | 0.02 | 78 | 1010.3 |
| 20260507192427 | 56 | 307 | 2.6 | 3.5 | 0.00 | 0.02 | 0.02 | 76 | 1010.7 |
| 20260507191924 | 57 | 0 | 0.0 | 1.7 | 0.00 | 0.02 | 0.02 | 79 | 1011.2 |
| 20260507191420 | 56 | 303 | 1.7 | 2.6 | 0.00 | 0.02 | 0.02 | 79 | 1011.3 |
| 20260507190917 | 57 | 355 | 0.0 | 2.6 | 0.00 | 0.02 | 0.02 | 76 | 1011.1 |
| 20260507190415 | 57 | 270 | 0.0 | 1.7 | 0.00 | 0.02 | 0.02 | 75 | 1010.8 |
| 20260507185914 | 57 | 90 | 0.9 | 0.9 | 0.00 | 0.02 | 0.02 | 71 | 1010.9 |
| 20260507185410 | 57 | 147 | 0.0 | 1.7 | 0.00 | 0.02 | 0.02 | 71 | 1011.1 |
| 20260507184907 | 58 | 123 | 1.7 | 1.7 | 0.00 | 0.02 | 0.02 | 65 | 1011.3 |
| 20260507184405 | 58 | 90 | 0.0 | 1.7 | 0.00 | 0.02 | 0.02 | 66 | 1011.0 |
| 20260507183902 | 58 | 140 | 1.7 | 2.6 | 0.00 | 0.02 | 0.02 | 63 | 1011.8 |
| 20260507183359 | 59 | 90 | 0.0 | 1.7 | 0.00 | 0.02 | 0.02 | 64 | 1011.4 |
| 20260507182856 | 59 | 0 | 1.7 | 1.7 | 0.00 | 0.02 | 0.02 | 62 | 1011.5 |
| 20260507182352 | 58 | 120 | 0.9 | 1.7 | 0.00 | 0.02 | 0.02 | 64 | 1011.2 |
| 20260507181848 | 58 | 144 | 1.7 | 2.6 | 0.00 | 0.02 | 0.02 | 65 | 1011.5 |
| 20260507181344 | 58 | 106 | 0.0 | 1.7 | 0.00 | 0.02 | 0.02 | 67 | 1011.5 |
| 20260507180841 | 57 | 132 | 0.0 | 2.6 | 0.00 | 0.02 | 0.02 | 67 | 1011.7 |
| 20260507180338 | 58 | 114 | 0.9 | 1.7 | 0.00 | 0.02 | 0.02 | 68 | 1011.7 |
| 20260507175834 | 58 | 99 | 0.0 | 2.6 | 0.00 | 0.02 | 0.02 | 67 | 1011.7 |
| 20260507175331 | 58 | 306 | 0.9 | 2.6 | 0.00 | 0.02 | 0.02 | 64 | 1011.7 |
| 20260507174828 | 57 | 301 | 0.0 | 2.6 | 0.00 | 0.02 | 0.02 | 63 | 1011.6 |
| 20260507174326 | 57 | 295 | 1.7 | 2.6 | 0.00 | 0.02 | 0.02 | 63 | 1011.7 |
| 20260507173823 | 58 | 331 | 0.9 | 1.7 | 0.00 | 0.02 | 0.02 | 63 | 1011.8 |
| 20260507173320 | 58 | 300 | 1.7 | 1.7 | 0.00 | 0.02 | 0.02 | 59 | 1011.7 |
| 20260507172816 | 58 | 100 | 2.6 | 3.5 | 0.00 | 0.02 | 0.02 | 62 | 1011.6 |
| 20260507172313 | 59 | 81 | 0.0 | 2.6 | 0.00 | 0.02 | 0.02 | 57 | 1011.6 |
| 20260507171809 | 60 | 8 | 0.0 | 1.7 | 0.00 | 0.02 | 0.02 | 70 | 1011.7 |
| 20260507171306 | 59 | 144 | 0.0 | 1.7 | 0.00 | 0.02 | 0.02 | 71 | 1011.6 |
| 20260507170803 | 58 | 99 | 0.0 | 1.7 | 0.00 | 0.02 | 0.02 | 72 | 1012.0 |
| 20260507170259 | 58 | 90 | 0.0 | 2.6 | 0.00 | 0.02 | 0.02 | 71 | 1012.4 |
| 20260507165756 | 58 | 140 | 0.0 | 1.7 | 0.00 | 0.02 | 0.02 | 73 | 1012.4 |
| 20260507165252 | 58 | 8 | 0.0 | 0.0 | 0.00 | 0.02 | 0.02 | 72 | 1012.4 |
| 20260507164748 | 58 | 281 | 3.5 | 4.3 | 0.00 | 0.02 | 0.02 | 70 | 1012.4 |
| 20260507164245 | 58 | 99 | 0.0 | 2.6 | 0.00 | 0.02 | 0.02 | 71 | 1012.5 |
| 20260507163742 | 58 | 60 | 0.0 | 0.9 | 0.00 | 0.02 | 0.02 | 70 | 1012.5 |
| 20260507163240 | 58 | 151 | 0.0 | 2.6 | 0.00 | 0.02 | 0.02 | 71 | 1012.2 |
| 20260507162736 | 57 | 97 | 0.0 | 1.7 | 0.00 | 0.02 | 0.02 | 69 | 1012.6 |
| 20260507162232 | 57 | 152 | 1.7 | 4.3 | 0.00 | 0.02 | 0.02 | 68 | 1012.7 |
| 20260507161729 | 57 | 147 | 1.7 | 5.2 | 0.00 | 0.02 | 0.02 | 69 | 1012.5 |
| 20260507161225 | 57 | 154 | 1.7 | 3.5 | 0.00 | 0.02 | 0.02 | 70 | 1012.5 |
| 20260507160721 | 57 | 142 | 2.6 | 2.6 | 0.00 | 0.02 | 0.02 | 72 | 1012.7 |
| 20260507160218 | 57 | 139 | 1.7 | 3.5 | 0.00 | 0.02 | 0.02 | 72 | 1012.6 |
| 20260507155714 | 57 | 48 | 0.0 | 1.7 | 0.00 | 0.02 | 0.02 | 74 | 1012.9 |
| 20260507155210 | 57 | 145 | 2.6 | 3.5 | 0.00 | 0.02 | 0.02 | 73 | 1012.9 |
| 20260507154706 | 58 | 34 | 0.0 | 2.6 | 0.00 | 0.02 | 0.02 | 69 | 1012.9 |
| 20260507154205 | 58 | 29 | 1.7 | 2.6 | 0.00 | 0.02 | 0.02 | 69 | 1012.6 |
| 20260507153701 | 57 | 139 | 1.7 | 4.3 | 0.00 | 0.02 | 0.02 | 69 | 1012.8 |
| 20260507153157 | 58 | 131 | 0.0 | 5.2 | 0.00 | 0.02 | 0.02 | 71 | 1012.8 |
| 20260507152653 | 58 | 126 | 0.0 | 3.5 | 0.00 | 0.02 | 0.02 | 73 | 1012.7 |
| 20260507152150 | 58 | 135 | 1.7 | 2.6 | 0.00 | 0.02 | 0.02 | 73 | 1012.6 |
| 20260507151646 | 59 | 126 | 4.3 | 7.8 | 0.00 | 0.02 | 0.02 | 73 | 1012.5 |
| 20260507151143 | 59 | 109 | 0.9 | 3.5 | 0.00 | 0.02 | 0.02 | 73 | 1012.5 |
| 20260507150640 | 59 | 154 | 1.7 | 1.7 | 0.00 | 0.02 | 0.02 | 77 | 1012.6 |
| 20260507150137 | 58 | 114 | 1.7 | 1.7 | 0.00 | 0.02 | 0.02 | 78 | 1012.9 |
| 20260507145632 | 58 | 103 | 0.9 | 2.6 | 0.00 | 0.02 | 0.02 | 79 | 1013.0 |
| 20260507145130 | 58 | 117 | 1.7 | 1.7 | 0.00 | 0.02 | 0.02 | 77 | 1013.2 |
| 20260507144626 | 58 | 150 | 3.5 | 5.2 | 0.00 | 0.02 | 0.02 | 75 | 1013.0 |
| 20260507144124 | 58 | 154 | 3.5 | 4.3 | 0.00 | 0.02 | 0.02 | 77 | 1013.1 |
| 20260507143620 | 59 | 148 | 3.5 | 4.3 | 0.00 | 0.02 | 0.02 | 80 | 1013.1 |
| 20260507143118 | 59 | 151 | 1.7 | 2.6 | 0.00 | 0.02 | 0.02 | 83 | 1013.0 |
| 20260507142613 | 58 | 146 | 1.7 | 2.6 | 0.00 | 0.02 | 0.02 | 85 | 1013.0 |
| 20260507142110 | 58 | 157 | 1.7 | 3.5 | 0.00 | 0.02 | 0.02 | 85 | 1013.3 |
| 20260507141606 | 58 | 141 | 2.6 | 4.3 | 0.00 | 0.02 | 0.02 | 85 | 1013.2 |
| 20260507141103 | 58 | 121 | 1.7 | 1.7 | 0.00 | 0.02 | 0.02 | 85 | 1013.1 |
| 20260507140600 | 57 | 123 | 1.7 | 3.5 | 0.00 | 0.02 | 0.02 | 83 | 1013.6 |
| 20260507140057 | 57 | 114 | 0.0 | 2.6 | 0.00 | 0.02 | 0.02 | 85 | 1013.3 |
| 20260507135554 | 57 | 90 | 0.9 | 4.3 | 0.00 | 0.02 | 0.02 | 84 | 1013.6 |
| 20260507135051 | 58 | 281 | 2.6 | 3.5 | 0.00 | 0.02 | 0.02 | 82 | 1013.2 |
| 20260507134548 | 59 | 117 | 1.7 | 3.5 | 0.00 | 0.02 | 0.02 | 82 | 1013.2 |
| 20260507134043 | 59 | 40 | 0.0 | 1.7 | 0.00 | 0.02 | 0.02 | 84 | 1013.1 |
| 20260507133540 | 58 | 143 | 1.7 | 2.6 | 0.00 | 0.02 | 0.02 | 82 | 1013.3 |
| 20260507133038 | 58 | 307 | 0.0 | 3.5 | 0.00 | 0.02 | 0.02 | 82 | 1013.3 |
| 20260507132534 | 58 | 84 | 0.9 | 1.7 | 0.00 | 0.02 | 0.02 | 83 | 1013.1 |
| 20260507132031 | 57 | 141 | 1.7 | 5.2 | 0.00 | 0.02 | 0.02 | 83 | 1013.4 |
| 20260507131528 | 58 | 135 | 1.7 | 2.6 | 0.00 | 0.02 | 0.02 | 83 | 1013.2 |
| 20260507131025 | 59 | 140 | 2.6 | 2.6 | 0.00 | 0.02 | 0.02 | 83 | 1013.1 |
| 20260507130522 | 59 | 143 | 1.7 | 2.6 | 0.00 | 0.02 | 0.02 | 83 | 1013.1 |
| 20260507130020 | 58 | 120 | 0.0 | 2.6 | 0.00 | 0.02 | 0.02 | 84 | 1013.1 |
| 20260507125518 | 58 | 147 | 1.7 | 1.7 | 0.00 | 0.02 | 0.02 | 84 | 1013.0 |
| 20260507125015 | 57 | 115 | 1.7 | 5.2 | 0.00 | 0.02 | 0.02 | 84 | 1013.4 |
| 20260507124512 | 58 | 334 | 0.0 | 3.5 | 0.00 | 0.02 | 0.02 | 83 | 1013.3 |
| 20260507124009 | 58 | 262 | 0.0 | 4.3 | 0.00 | 0.02 | 0.02 | 83 | 1013.2 |
| 20260507123507 | 58 | 5 | 0.0 | 2.6 | 0.00 | 0.02 | 0.02 | 85 | 1013.4 |
| 20260507123004 | 58 | 98 | 0.9 | 2.6 | 0.00 | 0.02 | 0.02 | 86 | 1013.3 |
| 20260507122459 | 57 | 153 | 2.6 | 3.5 | 0.00 | 0.02 | 0.02 | 88 | 1013.0 |
| 20260507121955 | 57 | 140 | 2.6 | 4.3 | 0.00 | 0.02 | 0.02 | 88 | 1013.0 |
| 20260507121451 | 57 | 151 | 0.0 | 1.7 | 0.00 | 0.02 | 0.02 | 89 | 1012.9 |
| 20260507120947 | 57 | 90 | 0.0 | 2.6 | 0.00 | 0.02 | 0.02 | 89 | 1012.7 |
| 20260507120443 | 57 | 111 | 0.0 | 1.7 | 0.00 | 0.02 | 0.02 | 89 | 1012.4 |
| 20260507115940 | 57 | 23 | 1.7 | 3.5 | 0.00 | 0.02 | 0.02 | 89 | 1012.9 |
| 20260507115436 | 57 | 99 | 0.0 | 1.7 | 0.00 | 0.02 | 0.02 | 90 | 1013.0 |
| 20260507114932 | 56 | 133 | 2.6 | 2.6 | 0.00 | 0.02 | 0.02 | 91 | 1013.1 |
| 20260507114429 | 56 | 135 | 0.0 | 4.3 | 0.00 | 0.02 | 0.02 | 90 | 1013.1 |
| 20260507113926 | 56 | 106 | 0.0 | 2.6 | 0.00 | 0.02 | 0.02 | 91 | 1013.2 |
| 20260507113423 | 57 | 121 | 1.7 | 2.6 | 0.00 | 0.02 | 0.02 | 92 | 1012.7 |
| 20260507112920 | 56 | 112 | 1.7 | 2.6 | 0.00 | 0.02 | 0.02 | 91 | 1012.8 |
| 20260507112418 | 56 | 145 | 0.9 | 3.5 | 0.00 | 0.02 | 0.02 | 92 | 1013.0 |
| 20260507111915 | 56 | 119 | 1.7 | 2.6 | 0.00 | 0.02 | 0.02 | 92 | 1012.7 |
| 20260507111412 | 56 | 138 | 2.6 | 2.6 | 0.00 | 0.02 | 0.02 | 92 | 1012.6 |
| 20260507110908 | 56 | 135 | 1.7 | 2.6 | 0.00 | 0.02 | 0.02 | 92 | 1012.8 |
| 20260507110404 | 56 | 120 | 0.9 | 1.7 | 0.00 | 0.02 | 0.02 | 93 | 1012.9 |
| 20260507105901 | 56 | 107 | 1.7 | 2.6 | 0.00 | 0.02 | 0.02 | 93 | 1012.7 |
| 20260507105358 | 56 | 159 | 1.7 | 1.7 | 0.00 | 0.02 | 0.02 | 94 | 1012.2 |
| 20260507104855 | 55 | 123 | 1.7 | 1.7 | 0.00 | 0.02 | 0.02 | 93 | 1012.6 |
| 20260507104351 | 56 | 146 | 2.6 | 4.3 | 0.00 | 0.02 | 0.02 | 94 | 1012.6 |
| 20260507103847 | 56 | 99 | 0.0 | 2.6 | 0.00 | 0.02 | 0.02 | 94 | 1012.5 |
| 20260507103344 | 56 | 152 | 1.7 | 1.7 | 0.00 | 0.02 | 0.02 | 94 | 1012.4 |
| 20260507102840 | 56 | 26 | 0.9 | 4.3 | 0.00 | 0.02 | 0.02 | 94 | 1011.9 |
| 20260507102337 | 56 | 126 | 0.0 | 2.6 | 0.00 | 0.02 | 0.02 | 94 | 1011.8 |
| 20260507101833 | 56 | 129 | 1.7 | 2.6 | 0.00 | 0.02 | 0.02 | 95 | 1012.2 |
| 20260507101328 | 56 | 33 | 0.0 | 2.6 | 0.00 | 0.02 | 0.02 | 96 | 1011.9 |
| 20260507100825 | 57 | 90 | 0.0 | 1.7 | 0.00 | 0.02 | 0.02 | 97 | 1012.0 |
| 20260507100323 | 56 | 98 | 0.0 | 1.7 | 0.00 | 0.02 | 0.02 | 97 | 1012.4 |
| 20260507095821 | 56 | 278 | 0.9 | 2.6 | 0.00 | 0.02 | 0.02 | 97 | 1012.1 |
| 20260507095317 | 56 | 336 | 1.7 | 1.7 | 0.00 | 0.02 | 0.02 | 98 | 1012.3 |
| 20260507094814 | 56 | 148 | 0.0 | 1.7 | 0.00 | 0.02 | 0.02 | 97 | 1012.1 |
| 20260507094311 | 56 | 114 | 0.0 | 0.9 | 0.00 | 0.02 | 0.02 | 97 | 1012.0 |
| 20260507093808 | 56 | 0 | 0.0 | 0.9 | 0.00 | 0.02 | 0.02 | 97 | 1011.8 |
| 20260507093307 | 56 | 117 | 0.0 | 2.6 | 0.00 | 0.02 | 0.02 | 97 | 1011.8 |
| 20260507092804 | 56 | 126 | 0.0 | 1.7 | 0.00 | 0.02 | 0.02 | 97 | 1012.0 |
| 20260507092300 | 56 | 126 | 0.0 | 0.9 | 0.00 | 0.02 | 0.02 | 97 | 1012.1 |
| 20260507091756 | 56 | 120 | 2.6 | 2.6 | 0.00 | 0.02 | 0.02 | 97 | 1011.9 |
| 20260507091253 | 56 | 147 | 1.7 | 3.5 | 0.00 | 0.02 | 0.02 | 97 | 1011.6 |
| 20260507090753 | 56 | 137 | 3.5 | 4.3 | 0.00 | 0.02 | 0.02 | 97 | 1011.3 |
| 20260507090250 | 57 | 142 | 1.7 | 3.5 | 0.00 | 0.02 | 0.02 | 96 | 1011.5 |
| 20260507085747 | 57 | 139 | 1.7 | 1.7 | 0.00 | 0.02 | 0.02 | 96 | 1011.7 |
| 20260507085244 | 57 | 143 | 2.6 | 4.3 | 0.00 | 0.02 | 0.02 | 96 | 1011.6 |
| 20260507084742 | 57 | 152 | 1.7 | 4.3 | 0.00 | 0.02 | 0.02 | 97 | 1011.8 |
| 20260507084237 | 57 | 140 | 2.6 | 4.3 | 0.00 | 0.02 | 0.02 | 97 | 1011.9 |
| 20260507083735 | 57 | 145 | 0.9 | 2.6 | 0.00 | 0.02 | 0.02 | 97 | 1011.8 |
| 20260507083232 | 57 | 114 | 0.0 | 1.7 | 0.00 | 0.02 | 0.02 | 97 | 1011.9 |
| 20260507082728 | 57 | 123 | 2.6 | 2.6 | 0.00 | 0.02 | 0.02 | 97 | 1011.9 |
| 20260507082224 | 57 | 157 | 3.5 | 4.3 | 0.00 | 0.02 | 0.02 | 97 | 1011.8 |
| 20260507081721 | 57 | 123 | 0.0 | 2.6 | 0.00 | 0.02 | 0.02 | 97 | 1011.6 |
| 20260507081217 | 57 | 140 | 0.0 | 1.7 | 0.00 | 0.02 | 0.02 | 97 | 1011.5 |
| 20260507080714 | 57 | 132 | 1.7 | 4.3 | 0.00 | 0.02 | 0.02 | 97 | 1011.4 |
| 20260507080210 | 57 | 140 | 0.0 | 3.5 | 0.00 | 0.02 | 0.02 | 97 | 1011.1 |
| 20260507075705 | 57 | 150 | 1.7 | 4.3 | 0.00 | 0.02 | 0.02 | 97 | 1011.2 |
| 20260507075202 | 57 | 140 | 0.0 | 2.6 | 0.00 | 0.02 | 0.02 | 98 | 1011.2 |
| 20260507074658 | 57 | 135 | 2.6 | 4.3 | 0.00 | 0.02 | 0.02 | 98 | 1011.2 |
| 20260507074157 | 57 | 150 | 1.7 | 1.7 | 0.00 | 0.02 | 0.02 | 98 | 1010.8 |
| 20260507073653 | 57 | 146 | 2.6 | 2.6 | 0.00 | 0.02 | 0.02 | 97 | 1011.0 |
| 20260507073149 | 57 | 142 | 1.7 | 2.6 | 0.00 | 0.02 | 0.02 | 97 | 1010.8 |
| 20260507072647 | 57 | 147 | 1.7 | 2.6 | 0.00 | 0.02 | 0.02 | 97 | 1011.0 |
| 20260507072144 | 57 | 132 | 0.0 | 2.6 | 0.00 | 0.02 | 0.02 | 97 | 1010.8 |
| 20260507071642 | 57 | 155 | 2.6 | 3.5 | 0.00 | 0.02 | 0.02 | 97 | 1011.1 |
| 20260507071138 | 57 | 116 | 6.1 | 8.7 | 0.00 | 0.02 | 0.02 | 97 | 1011.3 |
| 20260507070635 | 57 | 111 | 2.6 | 5.2 | 0.00 | 0.02 | 0.02 | 98 | 1011.1 |
| 20260507070132 | 58 | 149 | 4.3 | 4.3 | 0.00 | 0.02 | 0.02 | 98 | 1011.4 |
| 20260507065628 | 58 | 150 | 7.0 | 7.8 | 0.00 | 0.02 | 0.02 | 98 | 1011.3 |
| 20260507065125 | 58 | 134 | 3.5 | 13.9 | 0.00 | 0.02 | 0.02 | 99 | 1011.3 |
| 20260507064623 | 58 | 165 | 3.5 | 6.1 | 0.00 | 0.02 | 0.02 | 99 | 1011.2 |
| 20260507064121 | 58 | 144 | 3.5 | 6.1 | 0.00 | 0.02 | 0.02 | 99 | 1011.2 |
| 20260507063618 | 58 | 142 | 4.3 | 7.0 | 0.02 | 0.02 | 0.02 | 99 | 1010.9 |
| 20260507063115 | 58 | 146 | 2.6 | 8.7 | 0.02 | 0.02 | 0.02 | 99 | 1010.4 |
| 20260507062612 | 58 | 153 | 2.6 | 4.3 | 0.00 | 0.02 | 0.02 | 99 | 1010.0 |
| 20260507062110 | 58 | 153 | 3.5 | 3.5 | 0.00 | 0.02 | 0.02 | 99 | 1009.9 |
| 20260507061607 | 58 | 185 | 0.0 | 2.6 | 0.00 | 0.02 | 0.02 | 99 | 1009.8 |
| 20260507061105 | 58 | 154 | 0.0 | 1.7 | 0.00 | 0.02 | 0.02 | 99 | 1009.9 |
| 20260507060603 | 58 | 114 | 1.7 | 1.7 | 0.00 | 0.02 | 0.02 | 99 | 1009.8 |
| 20260507060059 | 58 | 103 | 0.9 | 2.6 | 0.02 | 0.02 | 0.02 | 99 | 1009.6 |
| 20260507055554 | 58 | 139 | 0.0 | 1.7 | 0.02 | 0.02 | 0.02 | 99 | 1009.7 |
| 20260507055051 | 59 | 139 | 1.7 | 2.6 | 0.00 | 0.02 | 0.02 | 99 | 1010.0 |
| 20260507054547 | 59 | 154 | 2.6 | 4.3 | 0.00 | 0.02 | 0.02 | 99 | 1010.1 |
| 20260507054044 | 59 | 156 | 1.7 | 4.3 | 0.00 | 0.02 | 0.02 | 99 | 1010.5 |
| 20260507053542 | 60 | 142 | 2.6 | 3.5 | 0.00 | 0.02 | 0.02 | 99 | 1010.6 |
| 20260507053040 | 60 | 145 | 3.5 | 4.3 | 0.02 | 0.02 | 0.02 | 99 | 1010.6 |
| 20260507052538 | 60 | 132 | 3.5 | 4.3 | 0.02 | 0.02 | 0.02 | 99 | 1010.6 |
| 20260507052034 | 60 | 158 | 2.6 | 4.3 | 0.00 | 0.01 | 0.01 | 99 | 1010.8 |
| 20260507051532 | 61 | 138 | 2.6 | 3.5 | 0.00 | 0.01 | 0.01 | 99 | 1010.7 |
| 20260507051029 | 61 | 147 | 2.6 | 4.3 | 0.02 | 0.01 | 0.01 | 99 | 1010.5 |
| 20260507050525 | 62 | 154 | 3.5 | 4.3 | 0.02 | 0.01 | 0.01 | 99 | 1010.7 |
| 20260507050022 | 63 | 154 | 2.6 | 8.7 | 0.00 | 0.00 | 0.00 | 99 | 1010.6 |
| 20260507045518 | 64 | 153 | 4.3 | 5.2 | 0.02 | 0.00 | 0.00 | 99 | 1010.7 |
| 20260507045016 | 64 | 132 | 1.7 | 1.7 | 0.02 | 0.00 | 0.00 | 99 | 1010.5 |
| 20260507044512 | 64 | 155 | 2.6 | 6.1 | 0.00 | 0.00 | 0.00 | 99 | 1010.4 |
| 20260507044009 | 64 | 90 | 0.0 | 0.0 | 0.00 | 0.00 | 0.00 | 99 | 1010.5 |
| 20260507043505 | 64 | 270 | 0.0 | 0.9 | 0.00 | 0.00 | 0.00 | 99 | 1009.8 |
| 20260507043002 | 64 | 114 | 0.0 | 0.9 | 0.00 | 0.00 | 0.00 | 99 | 1010.2 |
| 20260507042458 | 63 | 166 | 0.0 | 0.0 | 0.00 | 0.00 | 0.00 | 99 | 1010.3 |
| 20260507041954 | 63 | 166 | 0.0 | 1.7 | 0.00 | 0.00 | 0.00 | 99 | 1010.2 |
| 20260507041451 | 63 | 157 | 0.0 | 0.0 | 0.00 | 0.00 | 0.00 | 99 | 1009.9 |
| 20260507040948 | 63 | 157 | 0.0 | 0.0 | 0.00 | 0.00 | 0.00 | 99 | 1010.0 |
| 20260507040443 | 63 | 157 | 0.0 | 0.0 | 0.00 | 0.00 | 0.00 | 99 | 1009.8 |
| 20260507035940 | 63 | 160 | 0.9 | 2.6 | 0.00 | 0.07 | 0.07 | 99 | 1009.7 |
| 20260507035436 | 64 | 165 | 0.0 | 0.9 | 0.00 | 0.07 | 0.07 | 99 | 1009.9 |
| 20260507034933 | 64 | 263 | 0.0 | 0.0 | 0.00 | 0.07 | 0.07 | 99 | 1009.8 |
| 20260507034430 | 64 | 263 | 0.0 | 0.0 | 0.00 | 0.07 | 0.07 | 99 | 1009.6 |
| 20260507033928 | 64 | 263 | 0.0 | 0.0 | 0.00 | 0.07 | 0.07 | 99 | 1009.9 |
| 20260507033426 | 64 | 263 | 0.0 | 0.0 | 0.00 | 0.07 | 0.07 | 99 | 1009.8 |
| 20260507032922 | 64 | 279 | 0.0 | 0.0 | 0.00 | 0.07 | 0.07 | 99 | 1009.8 |
| 20260507032420 | 63 | 154 | 0.0 | 0.0 | 0.00 | 0.07 | 0.07 | 99 | 1010.0 |
| 20260507031915 | 63 | 154 | 0.0 | 0.0 | 0.00 | 0.07 | 0.07 | 99 | 1010.4 |
| 20260507031412 | 63 | 154 | 0.0 | 0.0 | 0.00 | 0.07 | 0.07 | 99 | 1010.1 |
| 20260507030909 | 63 | 154 | 0.0 | 0.0 | 0.00 | 0.07 | 0.07 | 99 | 1010.0 |
| 20260507030406 | 63 | 154 | 0.0 | 0.0 | 0.00 | 0.07 | 0.07 | 99 | 1009.7 |
| 20260507025903 | 63 | 154 | 0.0 | 0.0 | 0.00 | 0.07 | 0.07 | 99 | 1009.7 |
| 20260507025401 | 63 | 154 | 0.0 | 1.7 | 0.00 | 0.07 | 0.07 | 99 | 1009.4 |
| 20260507024858 | 63 | 166 | 0.0 | 0.9 | 0.00 | 0.07 | 0.07 | 99 | 1009.4 |
| 20260507024355 | 63 | 151 | 0.0 | 0.9 | 0.00 | 0.07 | 0.07 | 99 | 1009.3 |
| 20260507023851 | 63 | 154 | 0.0 | 0.9 | 0.00 | 0.07 | 0.07 | 99 | 1009.1 |
| 20260507023348 | 63 | 151 | 0.9 | 1.7 | 0.00 | 0.07 | 0.07 | 98 | 1009.2 |
| 20260507022845 | 64 | 165 | 0.0 | 0.0 | 0.00 | 0.07 | 0.07 | 98 | 1009.1 |
| 20260507022342 | 64 | 165 | 0.0 | 0.0 | 0.00 | 0.07 | 0.07 | 97 | 1009.5 |
| 20260507021838 | 64 | 0 | 0.0 | 0.0 | 0.00 | 0.07 | 0.07 | 97 | 1009.3 |
| 20260507021333 | 64 | 0 | 0.0 | 0.0 | 0.00 | 0.07 | 0.07 | 98 | 1009.7 |
| 20260507020831 | 64 | 0 | 0.0 | 0.0 | 0.00 | 0.07 | 0.07 | 98 | 1009.6 |
| 20260507020328 | 64 | 151 | 0.0 | 0.0 | 0.00 | 0.07 | 0.07 | 98 | 1009.5 |
| 20260507015825 | 64 | 151 | 0.0 | 0.0 | 0.00 | 0.07 | 0.07 | 98 | 1009.7 |
| 20260507015323 | 64 | 151 | 0.0 | 0.0 | 0.00 | 0.07 | 0.07 | 98 | 1009.9 |
| 20260507014820 | 64 | 151 | 0.0 | 0.0 | 0.00 | 0.07 | 0.07 | 98 | 1010.1 |
| 20260507014316 | 63 | 151 | 0.0 | 0.0 | 0.00 | 0.07 | 0.07 | 98 | 1010.1 |
| 20260507013812 | 64 | 160 | 0.9 | 0.9 | 0.00 | 0.07 | 0.07 | 97 | 1009.9 |
| 20260507013310 | 64 | 165 | 0.0 | 0.9 | 0.00 | 0.07 | 0.07 | 96 | 1009.8 |
| 20260507012807 | 64 | 160 | 0.0 | 0.9 | 0.00 | 0.07 | 0.07 | 96 | 1010.0 |
| 20260507012306 | 64 | 166 | 0.0 | 0.9 | 0.00 | 0.07 | 0.07 | 95 | 1009.8 |
| 20260507011800 | 65 | 165 | 0.0 | 0.0 | 0.00 | 0.07 | 0.07 | 95 | 1009.6 |
| 20260507011257 | 65 | 165 | 0.0 | 0.0 | 0.00 | 0.07 | 0.07 | 95 | 1009.4 |
| 20260507010756 | 65 | 157 | 0.0 | 0.0 | 0.00 | 0.07 | 0.07 | 94 | 1009.6 |
| 20260507010252 | 66 | 165 | 0.0 | 0.9 | 0.00 | 0.07 | 0.07 | 94 | 1009.4 |
| 20260507005750 | 66 | 166 | 0.0 | 1.7 | 0.00 | 0.07 | 0.07 | 94 | 1009.6 |
| 20260507005246 | 66 | 165 | 0.0 | 0.0 | 0.00 | 0.07 | 0.07 | 93 | 1009.5 |
| 20260507004743 | 66 | 165 | 0.0 | 0.0 | 0.00 | 0.07 | 0.07 | 92 | 1009.2 |
| 20260507004241 | 67 | 165 | 0.9 | 0.9 | 0.00 | 0.07 | 0.07 | 92 | 1009.6 |
| 20260507003736 | 67 | 180 | 0.0 | 0.0 | 0.00 | 0.07 | 0.07 | 91 | 1009.5 |
| 20260507003232 | 67 | 180 | 0.0 | 0.0 | 0.00 | 0.07 | 0.07 | 91 | 1009.6 |
| 20260507002728 | 67 | 180 | 0.0 | 0.0 | 0.00 | 0.07 | 0.07 | 91 | 1009.5 |
| 20260507002224 | 67 | 99 | 0.0 | 0.0 | 0.00 | 0.07 | 0.07 | 90 | 1009.4 |
| 20260507001721 | 68 | 131 | 0.0 | 2.6 | 0.00 | 0.07 | 0.07 | 90 | 1009.4 |
| 20260507001218 | 68 | 285 | 0.0 | 1.7 | 0.00 | 0.07 | 0.07 | 89 | 1009.2 |
| 20260507000715 | 68 | 286 | 1.7 | 2.6 | 0.00 | 0.07 | 0.07 | 88 | 1009.3 |
| 20260507000212 | 69 | 299 | 2.6 | 2.6 | 0.00 | 0.07 | 0.07 | 88 | 1009.3 |
| 20260506235708 | 69 | 162 | 0.9 | 1.7 | 0.00 | 0.07 | 0.07 | 87 | 1009.2 |
| 20260506235203 | 69 | 166 | 0.0 | 0.0 | 0.00 | 0.07 | 0.07 | 87 | 1009.2 |
| 20260506234700 | 70 | 342 | 0.9 | 1.7 | 0.00 | 0.07 | 0.07 | 86 | 1008.9 |
| 20260506234157 | 70 | 0 | 0.0 | 2.6 | 0.00 | 0.07 | 0.07 | 86 | 1009.0 |
| 20260506233655 | 70 | 117 | 0.0 | 0.0 | 0.00 | 0.07 | 0.07 | 86 | 1008.8 |
| 20260506233151 | 70 | 289 | 0.9 | 2.6 | 0.00 | 0.07 | 0.07 | 86 | 1008.8 |
| 20260506232648 | 70 | 20 | 2.6 | 2.6 | 0.00 | 0.07 | 0.07 | 85 | 1008.9 |
| 20260506232143 | 70 | 292 | 1.7 | 2.6 | 0.00 | 0.07 | 0.07 | 85 | 1009.1 |
| 20260506231640 | 70 | 159 | 1.7 | 2.6 | 0.00 | 0.07 | 0.07 | 85 | 1008.9 |
| 20260506231139 | 70 | 306 | 0.9 | 3.5 | 0.00 | 0.07 | 0.07 | 85 | 1008.8 |
| 20260506230635 | 70 | 270 | 0.0 | 2.6 | 0.00 | 0.07 | 0.07 | 85 | 1008.9 |
| 20260506230132 | 71 | 106 | 0.9 | 3.5 | 0.00 | 0.07 | 0.07 | 85 | 1008.7 |
| 20260506225629 | 71 | 348 | 0.9 | 4.3 | 0.00 | 0.07 | 0.07 | 84 | 1008.8 |
| 20260506225125 | 71 | 40 | 1.7 | 2.6 | 0.00 | 0.07 | 0.07 | 84 | 1008.8 |
| 20260506224622 | 71 | 188 | 0.0 | 2.6 | 0.00 | 0.07 | 0.07 | 84 | 1008.8 |
| 20260506224118 | 71 | 270 | 0.0 | 1.7 | 0.00 | 0.07 | 0.07 | 84 | 1008.8 |
| 20260506223615 | 71 | 6 | 0.0 | 2.6 | 0.00 | 0.07 | 0.07 | 84 | 1009.0 |
| 20260506223111 | 71 | 261 | 0.0 | 3.5 | 0.00 | 0.07 | 0.07 | 83 | 1008.9 |
| 20260506222608 | 71 | 310 | 0.0 | 2.6 | 0.00 | 0.07 | 0.07 | 83 | 1008.6 |
| 20260506222104 | 72 | 166 | 0.0 | 2.6 | 0.00 | 0.07 | 0.07 | 83 | 1008.9 |
| 20260506221602 | 71 | 114 | 1.7 | 2.6 | 0.00 | 0.07 | 0.07 | 83 | 1008.6 |
| 20260506221100 | 72 | 159 | 1.7 | 2.6 | 0.00 | 0.07 | 0.07 | 83 | 1008.7 |
| 20260506220556 | 72 | 160 | 0.0 | 2.6 | 0.00 | 0.07 | 0.07 | 83 | 1009.0 |
| 20260506220051 | 71 | 103 | 0.0 | 2.6 | 0.00 | 0.07 | 0.07 | 83 | 1008.8 |
| 20260506215548 | 71 | 283 | 0.0 | 3.5 | 0.00 | 0.07 | 0.07 | 83 | 1008.8 |
| 20260506215044 | 72 | 90 | 0.0 | 2.6 | 0.00 | 0.07 | 0.07 | 83 | 1009.1 |
| 20260506214541 | 72 | 281 | 0.0 | 3.5 | 0.00 | 0.07 | 0.07 | 83 | 1008.8 |
| 20260506214038 | 71 | 343 | 3.5 | 4.3 | 0.00 | 0.07 | 0.07 | 82 | 1009.0 |
| 20260506213536 | 71 | 26 | 1.7 | 5.2 | 0.00 | 0.07 | 0.07 | 83 | 1009.0 |
| 20260506213033 | 71 | 33 | 0.0 | 4.3 | 0.00 | 0.07 | 0.07 | 82 | 1009.1 |
| 20260506212530 | 71 | 99 | 0.0 | 3.5 | 0.00 | 0.07 | 0.07 | 83 | 1009.0 |
| 20260506212025 | 71 | 94 | 2.6 | 4.3 | 0.00 | 0.07 | 0.07 | 83 | 1008.9 |
| 20260506211521 | 71 | 107 | 1.7 | 7.0 | 0.00 | 0.07 | 0.07 | 83 | 1008.9 |
| 20260506211018 | 71 | 225 | 0.0 | 6.1 | 0.00 | 0.07 | 0.07 | 83 | 1009.0 |
| 20260506210515 | 71 | 54 | 0.0 | 6.1 | 0.00 | 0.07 | 0.07 | 84 | 1009.0 |
| 20260506210011 | 71 | 282 | 5.2 | 7.0 | 0.00 | 0.07 | 0.07 | 83 | 1008.9 |